Overview Statistics Trail Chart Weather Telemetry Raw packets
 

This is the latest recevied weather packets stored in our database for station/object N3TJJ-2. If no packets are shown the sender has not sent any weather packets the latest 10 day(s).

<< 54 55 56 57 58 59 60 >>
Time Temp. Humidity Pressure Rain* Wind** Luminosity Snow
1788151016 21.67° C 23% 1020.6 hPa 0 mm - - -
1788151013 22.22° C 23% 1020.6 hPa 0 mm - - -
1788150661 21.67° C 23% 1020.6 hPa 0 mm - - -
1788150285 21.67° C 23% 1020.7 hPa 0 mm - - -
1788149954 21.67° C 23% 1020.7 hPa 0 mm - - -
1788149580 21.67° C 23% 1020.5 hPa 0 mm - - -
1788149212 21.67° C 23% 1020.3 hPa 0 mm - - -
1788148864 21.67° C 23% 1020.4 hPa 0 mm - - -
1788148491 22.22° C 23% 1020.4 hPa 0 mm - - -
1788148145 22.22° C 23% 1020.5 hPa 0 mm - - -
1788147765 22.22° C 23% 1020.5 hPa 0 mm - - -
1788147416 22.22° C 23% 1020.5 hPa 0 mm - - -
1788147069 22.22° C 23% 1020.5 hPa 0 mm - - -
1788146685 22.22° C 23% 1020.6 hPa 0 mm - - -
1788146334 22.22° C 23% 1020.8 hPa 0.76 mm - - -
1788145970 22.22° C 23% 1020.9 hPa 2.03 mm - - -
1788145615 22.22° C 24% 1020.8 hPa 2.03 mm - - -
1788145247 22.22° C 23% 1020.8 hPa 2.29 mm - - -
1788144891 22.22° C 24% 1020.8 hPa 3.05 mm - - -
1788144527 22.22° C 24% 1020.8 hPa 4.32 mm - - -
1788144180 21.67° C 25% 1020.9 hPa 4.83 mm - - -
1788143814 21.67° C 25% 1020.8 hPa 10.16 mm - - -
1788143446 21.67° C 25% 1020.9 hPa 17.53 mm - - -
1788143097 21.67° C 26% 1020.9 hPa 22.35 mm - - -
1788142744 21.11° C 27% 1021.3 hPa 23.88 mm - - -

* Rain latest hour (hover to see other rain measurements)
** Current wind speed in m/s (hover to see current wind gust speed)